Regional Weather Roundup
Issued by NWS Newport/Morehead, NC

Current Version | Previous Version | Graphics & Text | Print | Product List | Glossary Off
Versions: 1 2 3 4 5 6 7 8 9 10 11 12 13 14 15 16 17 18 19 20 21 22 23 24 25 26 27 28 29 30 31 32 33 34 35 36 37 38 39 40 41 42 43 44 45 46 47 48 49 50

000
ASUS42 KMHX 061613
RWRMHX
WEATHER ROUNDUP FOR EASTERN NORTH CAROLINA
NATIONAL WEATHER SERVICE NEWPORT/MOREHEAD CITY NC
1200 PM EDT WED MAY 06 2015

NOTE: "FAIR" INDICATES FEW OR NO CLOUDS BELOW 12,000 FEET
WITH NO SIGNIFICANT WEATHER AND/OR OBSTRUCTIONS TO VISIBILITY

NCZ015>017-031-032-045>047-102-103-061700-
NORTH COAST

CITY           SKY/WX    TMP DP  RH WIND       PRES   REMARKS
EDENTON        MOSUNNY   74  58  56 S5        30.25F
ELIZABETH CITY MOSUNNY   74  56  53 SE10      30.25F
KITTY HAWK     PTSUNNY   73  55  54 E7        30.25F
MANTEO         PTSUNNY   70  57  63 SW6       30.26F

$$

NCZ045>047-081-094-103-104-061700-
CENTRAL COAST

CITY           SKY/WX    TMP DP  RH WIND       PRES   REMARKS
FRISCO         PTSUNNY   72  56  57 SE8       30.25F
SWANQUARTER      N/A     73 N/A N/A SE5G12    30.21S

$$

NCZ095-097-098-100-101-061700-
SOUTHERN COAST

CITY           SKY/WX    TMP DP  RH WIND       PRES   REMARKS
BEAUFORT       CLOUDY    73  57  57 E10       30.22F
CEDAR ISLAND     N/A     70 N/A N/A NE12      30.27F
JACKSONVILLE   CLOUDY    74  54  49 NE8       30.22F
PINEY ISLAND   CLOUDY   N/A N/A N/A NE13      30.23F
WILMINGTON     PTSUNNY   74  59  59 E10       30.21S


$$

NCZ011>013-027>030-043-044-078>080-089-090>093-098-061700-
COASTAL PLAIN

CITY           SKY/WX    TMP DP  RH WIND       PRES   REMARKS
AHOSKIE        MOSUNNY   75  54  48 SE3       30.24F
CLINTON        PTSUNNY   76  56  50 E6        30.23F
ELIZABETHTOWN  MOSUNNY   75  53  45 CALM      30.21F
GOLDSBORO      PTSUNNY   75  55  50 VRB2      30.21F
GREENVILLE     MOSUNNY   75  55  50 SE5       30.24F
HAVELOCK       CLOUDY    74  57  55 NE12      30.24F
KENANSVILLE    PTSUNNY   75  51  42 E5        30.24F
KINSTON        PTSUNNY   73  54  49 E6        30.25F
NEW BERN       CLOUDY    74  54  49 VRB3      30.24F
RICHLANDS      PTSUNNY   73  54  49 E6        30.23F
ROCKY MOUNT    MOSUNNY   76  52  43 SE6       30.24F
WASHINGTON     PTSUNNY   73  55  52 E6        30.25F
WHITEVILLE     MOSUNNY   74  55  51 E5        30.20F

$$

AMZ130-135-150-152-154-156-158-170-250-252-270-ANZ085-086-088-633-658-670-061700-
MARINE OBSERVATIONS

STATION/POSITION TIME  TEMP    WIND        PRES    WAVE   SWELL
                       AIR SEA DIR/SP/G            HT/PER HT/PER
                 (UTC) (F)     (DEG/KT/KT) (MB)    (FT/S) (FT/S)
CHESAPEAKE LIGHT 1500   64     180/  9/  9 1025.1
64 E VA BEACH    1550   63 59  190/  4/  4 1024.8    2/11   2/11
DUCK             1500   65 52  130/  5/  5 1024.1
2 E DUCK         1511      60                N/A     2/11
OREGON INLET     1500   71 70  100/  6/  8 1025.1
13E OREGON INLT  1600      64                N/A     2/ 6
HATTERAS CG      1500   71 67  100/  6/  9 1024.4
DIAMOND BUOY     1550   71 74  100/ 10/ 12 1024.2    3/11   3/11
CAPE LOOKOUT     1600   68      40/ 11/ 12 1023.1
BEAUFORT LAB     1500   72 67   80/  6/ 11 1023.0
27 SE WRIGHTSVLE 1500   67 71   70/ 16/ 17   N/A
5 SE WRIGHTSVLE  1508   69 68   60/ 12/ 17 1022.8
225 S CAPE HAT   1550   67 70   80/ 27/ 35 1019.4    9/ 7
41 SE CHARLESTON 1550   73 73   50/ 19/ 23 1019.7    6/ 8   3/ 8

$$



USA.gov is the U.S. government's official web portal to all federal, state and local government web resources and services.